WD4IXD Weather Reports


time (UTC)temp
C
wind
direction
speed
KPH
gust
KPH
rain 1hr
cm
rain 24hr
cm
rain mn
cm
humidity
%
barometer
mb
20240424002003 14 336 11.3 19.3 0.00 0.00 0.00 47 1019.2
20240424001504 14 315 12.9 20.9 0.00 0.00 0.00 48 1019.2
20240424001003 15 330 11.3 20.9 0.00 0.00 0.00 46 1019.1
20240424000504 15 336 11.3 19.3 0.00 0.00 0.00 43 1019.1
20240424000003 15 340 9.7 20.9 0.00 0.00 0.00 41 1018.9
20240423235503 15 335 14.5 25.7 0.00 0.00 0.00 40 1019.1
20240423235003 15 321 16.1 25.7 0.00 0.00 0.00 40 1019.1
20240423234503 16 316 9.7 20.9 0.00 0.00 0.00 40 1018.9
20240423234004 16 315 16.1 24.1 0.00 0.00 0.00 39 1018.8
20240423233503 16 9 19.3 27.4 0.00 0.00 0.00 39 1018.8
20240423233004 16 316 19.3 25.7 0.00 0.00 0.00 38 1018.7
20240423232503 16 338 19.3 25.7 0.00 0.00 0.00 37 1018.6
20240423232004 16 345 19.3 25.7 0.00 0.00 0.00 37 1018.6
20240423231504 17 352 17.7 32.2 0.00 0.00 0.00 36 1018.5
20240423231004 17 344 16.1 25.7 0.00 0.00 0.00 36 1018.5
20240423230504 17 321 19.3 32.2 0.00 0.00 0.00 35 1018.5
20240423230004 17 318 14.5 32.2 0.00 0.00 0.00 35 1018.7
20240423225503 17 319 16.1 32.2 0.00 0.00 0.00 34 1018.6
20240423225004 17 308 20.9 32.2 0.00 0.00 0.00 34 1018.6
20240423224503 18 309 16.1 27.4 0.00 0.00 0.00 34 1018.5
20240423224004 18 317 16.1 29.0 0.00 0.00 0.00 34 1018.5
20240423223503 18 323 14.5 29.0 0.00 0.00 0.00 33 1018.4
20240423223004 18 310 19.3 32.2 0.00 0.00 0.00 34 1018.4
20240423222504 17 328 14.5 27.4 0.00 0.00 0.00 34 1018.3
20240423222003 18 333 16.1 27.4 0.00 0.00 0.00 34 1018.2
20240423221504 17 324 16.1 24.1 0.00 0.00 0.00 34 1018.3
20240423221003 17 344 16.1 22.5 0.00 0.00 0.00 33 1018.4
20240423220504 18 317 17.7 25.7 0.00 0.00 0.00 33 1018.5
20240423220003 18 313 14.5 22.5 0.00 0.00 0.00 32 1018.5
20240423215504 18 312 16.1 25.7 0.00 0.00 0.00 32 1018.5
20240423215003 17 311 11.3 19.3 0.00 0.00 0.00 34 1018.5
20240423214504 17 4 16.1 25.7 0.00 0.00 0.00 33 1018.6
20240423214004 17 314 16.1 25.7 0.00 0.00 0.00 34 1018.5
20240423213503 17 335 12.9 24.1 0.00 0.00 0.00 34 1018.6
20240423213004 17 359 16.1 24.1 0.00 0.00 0.00 34 1018.4
20240423212503 17 343 14.5 20.9 0.00 0.00 0.00 33 1018.6
20240423212004 17 334 19.3 32.2 0.00 0.00 0.00 32 1018.8
20240423211503 18 337 19.3 32.2 0.00 0.00 0.00 32 1018.9
20240423211004 18 344 19.3 32.2 0.00 0.00 0.00 31 1018.9
20240423210503 18 357 14.5 24.1 0.00 0.00 0.00 33 1019.0
20240423210004 18 341 16.1 27.4 0.00 0.00 0.00 33 1018.9
20240423205503 18 353 17.7 29.0 0.00 0.00 0.00 33 1018.9
20240423205004 18 5 17.7 29.0 0.00 0.00 0.00 32 1019.0
20240423204504 18 328 19.3 32.2 0.00 0.00 0.00 32 1018.9
20240423204004 18 332 16.1 32.2 0.00 0.00 0.00 33 1018.9
20240423203504 18 301 16.1 27.4 0.00 0.00 0.00 32 1018.8
20240423203004 18 303 19.3 29.0 0.00 0.00 0.00 32 1018.8
20240423202504 18 299 12.9 24.1 0.00 0.00 0.00 33 1018.8
20240423202003 18 306 16.1 20.9 0.00 0.00 0.00 31 1018.6
20240423201504 18 305 11.3 19.3 0.00 0.00 0.00 33 1018.7
20240423201003 18 304 9.7 19.3 0.00 0.00 0.00 32 1018.6
20240423200504 18 279 11.3 16.1 0.00 0.00 0.00 31 1018.8
20240423200003 18 308 4.8 11.3 0.00 0.00 0.00 32 1018.8
20240423195504 17 346 8.0 12.9 0.00 0.00 0.00 33 1018.8
20240423195003 17 334 6.4 11.3 0.00 0.00 0.00 32 1018.9
20240423194504 16 305 6.4 12.9 0.00 0.00 0.00 34 1019.1
20240423194004 16 316 3.2 14.5 0.00 0.00 0.00 34 1019.2
20240423193503 16 186 3.2 16.1 0.00 0.00 0.00 34 1019.3
20240423193004 16 239 11.3 16.1 0.00 0.00 0.00 33 1019.3
20240423192504 16 181 4.8 16.1 0.00 0.00 0.00 35 1019.4
20240423192004 16 194 6.4 19.3 0.00 0.00 0.00 35 1019.4
20240423191504 16 182 9.7 20.9 0.00 0.00 0.00 32 1019.5
20240423191003 16 115 3.2 20.9 0.00 0.00 0.00 33 1019.6
20240423190504 16 205 9.7 19.3 0.00 0.00 0.00 32 1019.8
20240423190004 16 180 4.8 14.5 0.00 0.00 0.00 32 1019.9
20240423185503 17 251 11.3 20.9 0.00 0.00 0.00 30 1020.0
20240423185004 17 111 4.8 11.3 0.00 0.00 0.00 32 1020.2
20240423184503 17 358 1.6 12.9 0.00 0.00 0.00 32 1020.1
20240423184004 16 289 3.2 12.9 0.00 0.00 0.00 33 1020.1
20240423183503 15 206 3.2 9.7 0.00 0.00 0.00 33 1020.2
20240423183004 15 133 6.4 19.3 0.00 0.00 0.00 35 1020.3
20240423182504 15 35 4.8 14.5 0.00 0.00 0.00 34 1020.5
20240423182004 14 337 3.2 12.9 0.00 0.00 0.00 35 1020.4
20240423181504 13 49 3.2 8.0 0.00 0.00 0.00 35 1020.5
20240423181003 13 124 8.0 14.5 0.00 0.00 0.00 36 1020.5
20240423180504 13 124 4.8 9.7 0.00 0.00 0.00 35 1020.6
20240423180003 13 123 3.2 4.8 0.00 0.00 0.00 34 1020.6
20240423175504 13 58 1.6 4.8 0.00 0.00 0.00 35 1020.6
20240423175003 13 303 4.8 8.0 0.00 0.00 0.00 34 1020.6
20240423174504 13 28 4.8 8.0 0.00 0.00 0.00 34 1020.7
20240423174003 13 259 1.6 4.8 0.00 0.00 0.00 33 1020.6
20240423173504 13 23 3.2 4.8 0.00 0.00 0.00 33 1020.5
20240423173003 13 21 1.6 9.7 0.00 0.00 0.00 35 1020.6
20240423172504 13 86 1.6 4.8 0.00 0.00 0.00 35 1020.6
20240423172004 13 11 3.2 8.0 0.00 0.00 0.00 34 1020.6
20240423171503 13 305 3.2 8.0 0.00 0.00 0.00 35 1020.8
20240423171004 12 0 4.8 9.7 0.00 0.00 0.00 35 1020.9
20240423170504 12 235 3.2 4.8 0.00 0.00 0.00 35 1020.9
20240423170004 12 317 3.2 8.0 0.00 0.00 0.00 36 1021.0
20240423165504 12 307 3.2 4.8 0.00 0.00 0.00 35 1021.0
20240423165003 12 18 3.2 8.0 0.00 0.00 0.00 36 1021.0
20240423164504 11 341 3.2 4.8 0.00 0.00 0.00 36 1021.0
20240423164003 11 13 1.6 8.0 0.00 0.00 0.00 37 1021.0
20240423163505 11 47 4.8 11.3 0.00 0.00 0.00 36 1021.0
20240423163004 11 78 3.2 4.8 0.00 0.00 0.00 36 1021.0
20240423162503 11 57 1.6 4.8 0.00 0.00 0.00 38 1021.1
20240423162004 11 108 3.2 4.8 0.00 0.00 0.00 38 1021.1
20240423161503 11 131 3.2 4.8 0.00 0.00 0.00 36 1021.2
20240423161004 11 3 3.2 9.7 0.00 0.00 0.00 37 1021.3
20240423160504 11 352 4.8 11.3 0.00 0.00 0.00 36 1021.3
20240423160003 11 328 3.2 8.0 0.00 0.00 0.00 37 1021.1
20240423155504 11 298 3.2 4.8 0.00 0.00 0.00 37 1021.0
20240423155003 11 313 3.2 8.0 0.00 0.00 0.00 36 1021.3
20240423154504 11 299 3.2 4.8 0.00 0.00 0.00 36 1021.3
20240423154004 11 344 4.8 11.3 0.00 0.00 0.00 36 1021.3
20240423153504 11 274 3.2 12.9 0.00 0.00 0.00 36 1021.2
20240423153004 11 266 3.2 8.0 0.00 0.00 0.00 37 1021.2
20240423152503 11 77 1.6 8.0 0.00 0.00 0.00 37 1021.4
20240423152004 11 330 3.2 4.8 0.00 0.00 0.00 38 1021.2
20240423151503 10 246 3.2 11.3 0.00 0.00 0.00 38 1021.3
20240423151004 10 308 9.7 19.3 0.00 0.00 0.00 38 1021.5
20240423150503 10 294 3.2 14.5 0.00 0.00 0.00 39 1021.5
20240423150004 10 301 8.0 14.5 0.00 0.00 0.00 40 1021.6
20240423145503 9 315 8.0 19.3 0.00 0.00 0.00 42 1021.6
20240423145004 8 344 3.2 12.9 0.00 0.00 0.00 43 1021.6
20240423144504 8 39 4.8 16.1 0.00 0.00 0.00 43 1021.6
20240423144004 8 352 4.8 14.5 0.00 0.00 0.00 44 1021.7
20240423143504 7 340 6.4 12.9 0.00 0.00 0.00 44 1021.6
20240423143004 7 314 4.8 12.9 0.00 0.00 0.00 44 1021.6
20240423142504 7 357 9.7 14.5 0.00 0.00 0.00 44 1021.6
20240423142003 7 354 8.0 14.5 0.00 0.00 0.00 45 1021.6
20240423141504 7 358 11.3 16.1 0.00 0.00 0.00 44 1021.5
20240423141004 7 355 8.0 14.5 0.00 0.00 0.00 45 1021.7
20240423140503 7 343 6.4 11.3 0.00 0.00 0.00 44 1021.7
20240423140004 7 329 8.0 14.5 0.00 0.00 0.00 44 1021.7
20240423135503 7 320 8.0 16.1 0.00 0.00 0.00 44 1021.4
20240423135004 7 350 8.0 19.3 0.00 0.00 0.00 45 1021.4
20240423134504 7 2 9.7 19.3 0.00 0.00 0.00 44 1021.4
20240423134004 7 347 9.7 16.1 0.00 0.00 0.00 46 1021.6
20240423133503 7 343 9.7 16.1 0.00 0.00 0.00 46 1021.6
20240423133004 7 339 4.8 14.5 0.00 0.00 0.00 46 1021.6
20240423132503 7 334 8.0 14.5 0.00 0.00 0.00 46 1021.5
20240423132004 6 336 8.0 16.1 0.00 0.00 0.00 47 1021.4
20240423131504 6 350 8.0 14.5 0.00 0.00 0.00 47 1021.4
20240423131003 6 335 6.4 16.1 0.00 0.00 0.00 48 1021.3
20240423130504 6 323 4.8 8.0 0.00 0.00 0.00 48 1021.3
20240423130003 6 330 4.8 8.0 0.00 0.00 0.00 48 1021.1
20240423125504 6 356 3.2 9.7 0.00 0.00 0.00 48 1021.0
20240423125003 6 2 4.8 9.7 0.00 0.00 0.00 48 1020.9
20240423124504 6 354 6.4 12.9 0.00 0.00 0.00 48 1020.7
20240423124004 6 359 4.8 8.0 0.00 0.00 0.00 48 1020.7
20240423123504 6 344 4.8 8.0 0.00 0.00 0.00 48 1020.7
20240423123004 6 334 8.0 12.9 0.00 0.00 0.00 48 1020.7
20240423122504 6 352 6.4 14.5 0.00 0.00 0.00 48 1020.6
20240423122004 6 350 4.8 9.7 0.00 0.00 0.00 48 1020.7
20240423121503 6 342 8.0 14.5 0.00 0.00 0.00 48 1020.5
20240423121004 6 340 6.4 14.5 0.00 0.00 0.00 48 1020.3
20240423120503 6 333 8.0 12.9 0.00 0.00 0.00 48 1020.3
20240423120003 6 346 6.4 9.7 0.00 0.00 0.00 48 1020.2
20240423115504 6 2 4.8 8.0 0.00 0.00 0.00 48 1020.2
20240423115003 6 352 4.8 8.0 0.00 0.00 0.00 48 1020.2
20240423114503 6 346 6.4 12.9 0.00 0.00 0.00 47 1020.2
20240423114004 6 342 6.4 12.9 0.00 0.00 0.00 47 1020.0
20240423113503 6 334 8.0 14.5 0.00 0.00 0.00 47 1020.0
20240423113004 6 351 6.4 12.9 0.00 0.00 0.00 47 1020.0
20240423112503 7 358 6.4 19.3 0.00 0.00 0.00 47 1019.9
20240423112004 7 344 8.0 16.1 0.00 0.00 0.00 46 1019.8
20240423111503 7 337 11.3 16.1 0.00 0.00 0.00 46 1019.8
20240423111004 7 344 8.0 19.3 0.00 0.00 0.00 46 1019.8
20240423110504 7 344 9.7 19.3 0.00 0.00 0.00 46 1019.8
20240423110004 7 335 12.9 24.1 0.00 0.00 0.00 46 1019.5
20240423105503 7 321 9.7 19.3 0.00 0.00 0.00 47 1019.5
20240423105004 7 310 11.3 19.3 0.00 0.00 0.00 48 1019.4
20240423104503 7 317 9.7 16.1 0.00 0.00 0.00 49 1019.4
20240423104004 7 327 9.7 16.1 0.00 0.00 0.00 49 1019.2
20240423103503 7 310 11.3 20.9 0.00 0.00 0.00 50 1019.1
20240423103003 7 312 11.3 20.9 0.00 0.00 0.00 50 1019.1
20240423102504 8 312 12.9 20.9 0.00 0.00 0.00 51 1019.1
20240423102003 8 312 14.5 19.3 0.00 0.00 0.00 51 1018.9
20240423101504 8 329 9.7 19.3 0.00 0.00 0.00 49 1018.9
20240423101003 8 355 14.5 20.9 0.00 0.00 0.00 49 1018.7
20240423100504 8 3 16.1 29.0 0.00 0.00 0.00 49 1018.6
20240423100003 8 334 19.3 29.0 0.00 0.00 0.00 53 1018.5
20240423095504 8 341 14.5 29.0 0.00 0.00 0.00 56 1018.3
20240423095003 8 331 14.5 27.4 0.00 0.00 0.00 56 1018.2
20240423094504 9 335 19.3 27.4 0.00 0.00 0.00 56 1018.1
20240423094003 9 7 22.5 35.4 0.00 0.00 0.00 56 1017.8
20240423093504 10 351 24.1 33.8 0.00 0.00 0.00 55 1017.8
20240423093003 10 351 20.9 32.2 0.00 0.00 0.00 55 1017.5
20240423092504 11 345 19.3 33.8 0.00 0.00 0.00 53 1017.2
20240423092008 11 2 25.7 38.6 0.00 0.00 0.00 50 1016.8
20240423091503 12 358 22.5 40.2 0.00 0.00 0.00 47 1016.4
20240423091003 13 7 29.0 37.0 0.00 0.00 0.00 44 1016.0
20240423090504 13 349 24.1 37.0 0.00 0.00 0.00 40 1015.9
20240423090003 14 294 3.2 11.3 0.00 0.00 0.00 39 1015.2
20240423085504 14 269 3.2 4.8 0.00 0.00 0.00 39 1014.9
20240423085004 14 296 3.2 4.8 0.00 0.00 0.00 39 1014.8
20240423084503 14 331 3.2 4.8 0.00 0.00 0.00 39 1014.8
20240423084004 14 40 1.6 4.8 0.00 0.00 0.00 39 1014.8
20240423083504 15 109 1.6 8.0 0.00 0.00 0.00 39 1014.9
20240423083004 15 20 3.2 4.8 0.00 0.00 0.00 38 1015.0
20240423082503 15 10 3.2 4.8 0.00 0.00 0.00 37 1015.0
20240423082005 15 198 1.6 4.8 0.00 0.00 0.00 37 1015.0
20240423081503 15 123 1.6 11.3 0.00 0.00 0.00 38 1014.9
20240423081004 15 118 1.6 11.3 0.00 0.00 0.00 37 1014.9
20240423080503 15 111 8.0 11.3 0.00 0.00 0.00 37 1014.7
20240423080004 15 120 4.8 9.7 0.00 0.00 0.00 37 1014.7
20240423075503 15 254 6.4 12.9 0.00 0.00 0.00 37 1014.9
20240423075004 14 149 4.8 12.9 0.00 0.00 0.00 38 1014.9
20240423074504 14 154 4.8 8.0 0.00 0.00 0.00 38 1014.9
20240423074004 14 214 3.2 8.0 0.00 0.00 0.00 38 1015.0
20240423073504 13 154 3.2 12.9 0.00 0.00 0.00 39 1015.0
20240423073003 13 110 3.2 4.8 0.00 0.00 0.00 39 1014.9
20240423072504 13 132 1.6 4.8 0.00 0.00 0.00 39 1014.8
20240423072003 13 202 4.8 11.3 0.00 0.00 0.00 39 1014.8
20240423071504 13 139 3.2 4.8 0.00 0.00 0.00 39 1014.7
20240423071004 13 310 1.6 3.2 0.00 0.00 0.00 39 1014.7
20240423070503 13 298 1.6 4.8 0.00 0.00 0.00 39 1014.6
20240423070004 14 258 3.2 11.3 0.00 0.00 0.00 38 1014.7
20240423065503 14 252 6.4 12.9 0.00 0.00 0.00 38 1014.7
20240423065004 14 270 4.8 9.7 0.00 0.00 0.00 38 1014.6
20240423064503 15 275 4.8 11.3 0.00 0.00 0.00 37 1014.6
20240423064004 15 280 6.4 11.3 0.00 0.00 0.00 36 1014.5
20240423063503 15 293 3.2 9.7 0.00 0.00 0.00 36 1014.4
20240423063004 15 289 4.8 14.5 0.00 0.00 0.00 35 1014.5
20240423062504 15 255 12.9 20.9 0.00 0.00 0.00 35 1014.4
20240423062004 15 298 6.4 12.9 0.00 0.00 0.00 35 1014.3
20240423061504 15 291 3.2 11.3 0.00 0.00 0.00 35 1014.3
20240423061004 15 290 4.8 11.3 0.00 0.00 0.00 35 1014.3
20240423060504 15 283 6.4 19.3 0.00 0.00 0.00 34 1014.2
20240423060003 15 266 11.3 19.3 0.00 0.00 0.00 34 1014.3
20240423055503 16 297 4.8 12.9 0.00 0.00 0.00 35 1014.1
20240423055003 16 284 4.8 12.9 0.00 0.00 0.00 34 1014.0
20240423054503 16 261 6.4 16.1 0.00 0.00 0.00 34 1013.9
20240423054004 16 234 12.9 19.3 0.00 0.00 0.00 34 1013.9
20240423053503 15 229 11.3 19.3 0.00 0.00 0.00 34 1013.8
20240423053004 15 223 8.0 14.5 0.00 0.00 0.00 34 1013.8
20240423052503 15 242 11.3 19.3 0.00 0.00 0.00 34 1013.8
20240423052004 15 234 4.8 9.7 0.00 0.00 0.00 35 1013.8
20240423051504 15 181 4.8 12.9 0.00 0.00 0.00 35 1013.8
20240423051003 15 156 9.7 14.5 0.00 0.00 0.00 36 1013.8
20240423050504 15 161 9.7 12.9 0.00 0.00 0.00 37 1013.8
20240423050004 14 152 8.0 12.9 0.00 0.00 0.00 37 1013.9
20240423045503 15 157 9.7 14.5 0.00 0.00 0.00 37 1013.8
20240423045004 15 141 8.0 11.3 0.00 0.00 0.00 35 1013.9
20240423044503 15 156 6.4 12.9 0.00 0.00 0.00 35 1013.9
20240423044004 15 142 6.4 11.3 0.00 0.00 0.00 35 1013.9
20240423043504 15 141 6.4 11.3 0.00 0.00 0.00 35 1014.0
20240423043003 15 127 8.0 14.5 0.00 0.00 0.00 36 1014.0
20240423042504 14 117 6.4 11.3 0.00 0.00 0.00 37 1014.0
20240423042004 14 118 8.0 14.5 0.00 0.00 0.00 37 1014.0
20240423041503 15 160 9.7 14.5 0.00 0.00 0.00 36 1014.1
20240423041004 15 149 8.0 12.9 0.00 0.00 0.00 34 1014.0
20240423040504 16 119 8.0 11.3 0.00 0.00 0.00 33 1014.0
20240423040003 16 119 4.8 9.7 0.00 0.00 0.00 33 1014.0
20240423035504 16 112 8.0 11.3 0.00 0.00 0.00 33 1014.0
20240423035004 16 114 8.0 11.3 0.00 0.00 0.00 33 1013.9
20240423034504 16 106 9.7 14.5 0.00 0.00 0.00 33 1013.9
20240423034003 16 109 9.7 11.3 0.00 0.00 0.00 33 1013.9
20240423033504 17 133 4.8 9.7 0.00 0.00 0.00 32 1013.8
20240423033004 17 152 6.4 9.7 0.00 0.00 0.00 31 1013.7
20240423032503 17 159 3.2 8.0 0.00 0.00 0.00 31 1013.8
20240423032003 17 117 3.2 4.8 0.00 0.00 0.00 32 1013.8
20240423031503 17 105 3.2 4.8 0.00 0.00 0.00 32 1013.8
20240423031004 17 105 1.6 4.8 0.00 0.00 0.00 32 1013.8
20240423030504 16 143 4.8 8.0 0.00 0.00 0.00 32 1013.7
20240423030004 17 119 4.8 8.0 0.00 0.00 0.00 32 1013.6
20240423025504 17 49 1.6 3.2 0.00 0.00 0.00 32 1013.5
20240423025004 17 13 3.2 4.8 0.00 0.00 0.00 31 1013.3
20240423024505 18 209 3.2 8.0 0.00 0.00 0.00 31 1013.4
20240423024003 18 344 9.7 14.5 0.00 0.00 0.00 29 1013.2
20240423023504 18 342 8.0 12.9 0.00 0.00 0.00 29 1013.2
20240423023003 18 343 8.0 12.9 0.00 0.00 0.00 28 1013.1
20240423022504 18 335 11.3 16.1 0.00 0.00 0.00 28 1013.0
20240423022004 18 314 9.7 16.1 0.00 0.00 0.00 28 1012.9
20240423021503 18 349 9.7 16.1 0.00 0.00 0.00 28 1012.8
20240423021004 18 320 8.0 11.3 0.00 0.00 0.00 28 1012.9
20240423020504 19 329 8.0 12.9 0.00 0.00 0.00 28 1012.8
20240423020004 19 303 8.0 14.5 0.00 0.00 0.00 28 1012.9
20240423015503 20 323 8.0 14.5 0.00 0.00 0.00 27 1012.8
20240423015004 20 311 9.7 19.3 0.00 0.00 0.00 26 1012.9
20240423014503 20 306 9.7 14.5 0.00 0.00 0.00 26 1012.9
20240423014004 20 307 9.7 16.1 0.00 0.00 0.00 25 1012.8
20240423013504 21 314 8.0 14.5 0.00 0.00 0.00 24 1012.7
20240423013004 21 303 6.4 11.3 0.00 0.00 0.00 24 1012.8
20240423012503 21 298 9.7 12.9 0.00 0.00 0.00 24 1012.7
20240423012004 21 292 9.7 19.3 0.00 0.00 0.00 22 1012.6
20240423011503 22 305 11.3 22.5 0.00 0.00 0.00 21 1012.7
20240423011004 22 293 12.9 22.5 0.00 0.00 0.00 22 1012.7
20240423010503 22 290 11.3 20.9 0.00 0.00 0.00 22 1012.6
20240423010004 22 304 9.7 19.3 0.00 0.00 0.00 23 1012.7
20240423005503 22 285 14.5 32.2 0.00 0.00 0.00 21 1012.7
20240423005004 23 314 17.7 25.7 0.00 0.00 0.00 21 1012.7
20240423004503 23 315 19.3 27.4 0.00 0.00 0.00 20 1012.7
20240423004003 23 294 16.1 27.4 0.00 0.00 0.00 21 1012.7
20240423003504 23 302 22.5 32.2 0.00 0.00 0.00 20 1012.7
20240423003003 23 309 19.3 29.0 0.00 0.00 0.00 20 1012.7
20240423002504 23 299 19.3 35.4 0.00 0.00 0.00 20 1012.8